Location: Newark
(25.6108°S, 54.5803°W)
Time: 11:28:42
(UTC+00:00)

Transit 2A - Pass Details

Date: 30 October 2020
Orbit: 595 x 964 km, 66.7° (Epoch: 28 November)

Event Time Altitude Azimuth Distance (km) Brightness Sun altitude
Rises 01:43:18 0° 201° (SSW) 3,235 10.0 -43.8°
Reaches altitude 10° 01:45:36 10° 199° (SSW) 2,359 9.1 -44.1°
Enters shadow 01:46:01 12° 199° (SSW) 2,204 8.9 -44.1°
